{"data":{"norad_id":61961,"epoch":"2026-05-24T22:35:47.740128Z","epoch_age_seconds":70362,"freshness":"FRESH","line1":"1 61961U 24210C   26144.94152477  .00006181  00000+0  23399-3 0  9992","line2":"2 61961  43.0022 102.1041 0001367 253.2335 106.8367 15.27572160 86657","mean_motion":15.2757216,"eccentricity":0.0001367,"inclination_deg":43.0022,"raan_deg":102.1041,"arg_perigee_deg":253.2335,"mean_anomaly_deg":106.8367,"bstar":0.00023399,"rev_number":8665,"period_min":94.267232521441,"perigee_km":482.134644572,"apogee_km":484.01049926896,"semimajor_km":6861.2095719205,"source":"CELESTRAK","updated_at":"2026-05-25T13:38:19.491253Z"}}